Location: State Camp
(41.2367°N, 77.7828°W)
Time: 16:42:27
(UTC-04:00)

ADEOS Rocket - Visible Passes

Search period start: 25 May 2018 00:00
Search period end: 04 June 2018 00:00
Orbit: 858 x 1307 km, 98.8° (Epoch: 24 May)

Date Brightness Start Highest point End Pass type
(mag) Time Alt. Az. Time Alt. Az. Time Alt. Az.
25 May 2.7 00:43:57 10° NNE 00:49:25 74° E 00:49:25 74° E visible
25 May 4.8 02:31:19 10° NNW 02:34:21 15° WNW 02:36:22 13° W visible
25 May 3.9 23:55:34 10° NE 23:59:48 27° E 23:59:48 27° E visible
26 May 3.7 01:40:51 10° N 01:45:53 37° WNW 01:46:45 35° W visible
27 May 2.6 00:51:28 10° NNE 00:57:00 86° ESE 00:57:08 85° SSE visible
27 May 5.0 02:39:25 10° NNW 02:41:45 13° WNW 02:44:05 10° W visible
28 May 3.7 00:02:53 10° NNE 00:07:31 32° E 00:07:31 32° E visible
28 May 3.9 01:48:31 10° N 01:53:19 32° WNW 01:54:29 29° W visible
28 May 4.8 23:16:22 10° ENE 23:17:54 12° E 23:17:54 12° E visible
29 May 2.6 00:59:00 10° NNE 01:04:30 81° WNW 01:04:51 76° WSW visible
29 May 5.1 02:47:51 10° NW 02:49:08 11° NW 02:50:25 10° WNW visible
30 May 3.4 00:10:15 10° NNE 00:15:15 39° E 00:15:15 39° E visible
30 May 4.1 01:56:13 10° N 02:00:46 27° WNW 02:02:11 24° W visible
30 May 4.6 23:23:00 10° ENE 23:25:38 14° E 23:25:38 14° E visible
31 May 2.8 01:06:32 10° N 01:12:00 69° WNW 01:12:35 63° WSW visible
01 Jun 3.2 00:17:38 10° NNE 00:22:55 46° E 00:22:58 46° ESE visible
01 Jun 4.4 02:03:56 10° NNW 02:08:11 23° WNW 02:09:55 20° W visible
01 Jun 4.5 23:29:56 10° NE 23:33:22 17° E 23:33:22 17° E visible
02 Jun 3.0 01:14:06 10° N 01:19:29 58° WNW 01:20:19 52° WSW visible
03 Jun 2.9 00:25:04 10° NNE 00:30:27 55° E 00:30:42 54° ESE visible
03 Jun 4.6 02:11:42 10° NNW 02:15:37 20° WNW 02:17:39 17° W visible
03 Jun 4.3 23:37:02 10° NE 23:41:06 21° E 23:41:06 21° E visible
